sat.trackr.live / text

‹ back to catalog

STARLINK-34154

NORAD 63995 · 2025-101B

PAYLOAD ACTIVE UNKNOWN

§ Identity

Operator
Country
US
Launch date
2025-05-14
Launch site
AFETR
Launch vehicle
Mass (kg)
RCS (m²)

Purposes: comms

External: N2YO · Heavens-Above · Gunter

§ Orbital elements

Epoch: 2026-05-25T02:41:13.311168Z

Period
94.27 min
Inclination
43.0002°
Eccentricity
0.0002241
Mean motion
15.27599267 rev/d
Perigee alt
481.5 km
Apogee alt
484.5 km
Semi-major
6,861.1 km
B*
6.2956e-4
RAAN
286.3214°
Arg perigee
263.0120°
Mean anomaly
97.0477°
Rev number
5,874

§ Raw data

STARLINK-341541 63995U 25101B   26145.11195962  .00017113  00000+0  62956-3 0  99962 63995  43.0002 286.3214 0002241 263.0120  97.0477 15.27599267 58743

JSON: /api/v1/satellites/63995 · /tle

For live sub-satellite position, see the globe view (requires WebGL).

§ Visibility from observer

Set your observer location to see the next 7 days of passes ≥ 10°. The values pass through the URL so the page stays shareable.

No JS? Fill the form by hand. The geolocation button needs JavaScript.